This is the latest recevied weather packets stored in our database for station/object SY1EBE-13. If no packets are shown the sender has not sent any weather packets the latest 10 day(s).
| Time | Temp. | Humidity | Pressure | Rain* | Wind** | Luminosity | Snow |
|---|---|---|---|---|---|---|---|
| 1788515912 | 28.89° C | 58% | 1014.2 hPa | - | - | - | - |
| 1788514393 | 28.89° C | 64% | 1014.1 hPa | - | - | - | - |
| 1788512875 | 28.89° C | 59% | 1014.4 hPa | - | - | - | - |
| 1788511353 | 28.89° C | 61% | 1014.5 hPa | - | - | - | - |
| 1788509835 | 28.89° C | 59% | 1014.4 hPa | - | - | - | - |
| 1788508311 | 28.89° C | 60% | 1014.3 hPa | - | - | - | - |
| 1788506791 | 28.33° C | 62% | 1014 hPa | - | - | - | - |
| 1788505273 | 28.33° C | 65% | 1013.7 hPa | - | - | - | - |
| 1788503755 | 28.33° C | 65% | 1013.5 hPa | - | - | - | - |
| 1788502226 | 28.33° C | 63% | 1013.4 hPa | - | - | - | - |
| 1788500722 | 28.33° C | 67% | 1013.2 hPa | - | - | - | - |
| 1788499202 | 28.33° C | 67% | 1013.2 hPa | - | - | - | - |
| 1788495461 | 28.89° C | 59% | 1012.7 hPa | - | - | - | - |
| 1788493954 | 28.89° C | 59% | 1012.6 hPa | - | - | - | - |
| 1788492434 | 29.44° C | 59% | 1012.6 hPa | - | - | - | - |
| 1788490917 | 29.44° C | 59% | 1012.6 hPa | - | - | - | - |
| 1788489409 | 29.44° C | 59% | 1012.6 hPa | - | - | - | - |
| 1788487880 | 29.44° C | 59% | 1012.5 hPa | - | - | - | - |
| 1788486356 | 29.44° C | 59% | 1012.4 hPa | - | - | - | - |
| 1788484836 | 29.44° C | 59% | 1012.2 hPa | - | - | - | - |
| 1788483320 | 29.44° C | 59% | 1012 hPa | - | - | - | - |
| 1788481800 | 29.44° C | 59% | 1011.9 hPa | - | - | - | - |
| 1788480279 | 29.44° C | 59% | 1012 hPa | - | - | - | - |
| 1788478756 | 29.44° C | 59% | 1012.1 hPa | - | - | - | - |
| 1788477233 | 29.44° C | 59% | 1012.1 hPa | - | - | - | - |
* Rain since midnight (hover to see other rain measurements)
** Current wind speed in m/s (hover to see current wind gust speed)